www.pogodaiklimat.ru

Погода и климат >> Архив погоды >> Россия >> Забайкальский край >> Средняя Олекма


ПОГОДА в Средней Олекме

  • Прогноз погоды в Средней Олекме
  • Монитор погоды в Средней Олекме
  • Климат города

АРХИВ ПОГОДЫ в Средней Олекме

Время (UTC), дата Ветер
(напр.,м/с)
 
Видим.   Явления Облачность Т
(С)
Тd
(С)
f
(%)
Тe
(С)
Тes
(С)
Комфортность P
(гПа)
Po
(гПа)
Тmin
(С)
Tmax
(С)
R
(мм)
R24
(мм)
S
(см)
09 10.12 штиль 0 н/о ясно -34.5 -36.7 80 -35 -35 опасность
обморожения
1046.4 970.7
12 10.12 штиль 0 н/о ясно -36.1 -37.8 84 -36 -36 опасность
обморожения
1046.9 970.7 -31.3
15 10.12 штиль 0 н/о ясно -37.5 -39.3 83 -38 -38 опасность
обморожения
1045.5 968.9
18 10.12 штиль 0 н/о ясно -39.7 -41.6 82 -40 -40 опасность
обморожения
1043.3 966.0
21 10.12 штиль 0 н/о ясно -41.3 -43.1 83 -41 -41 опасность
обморожения
1042.9 965.2
00 11.12 штиль 0 50 км ясно -42.3 -44.2 81 -42 -42 опасность
обморожения
1031.8 954.7 -42.4
03 11.12 штиль 0 50 км ясно -38.8 -41.0 79 -39 -38 опасность
обморожения
1042.0 965.3
06 11.12 штиль 0 50 км 10 баллов -33.7 -35.7 82 0.0
12 11.12 штиль 0 н/о 10 баллов -36.4 -38.7 79 -36 -36 опасность
обморожения
1036.9 961.3 -33.6
21 11.12 штиль 0 н/о ясно -39.6 -41.5 82 -40 -40 опасность
обморожения
1038.0 961.3
00 12.12 штиль 0 н/о 10 баллов -38.9 -41.0 80 -39 -39 опасность
обморожения
1039.2 962.7 -39.6
03 12.12 штиль 0 50 км 10 баллов -36.5 -38.7 80 -37 -37 опасность
обморожения
1039.8 964.0
06 12.12 штиль 0 50 км 10 баллов -30.5 -33.2 77 -31 -31 опасность
обморожения
1037.9 964.0
12 12.12 штиль 0 н/о 10 баллов -34.6 -36.7 81 -35 -35 опасность
обморожения
1042.1 966.7 -30.8
18 12.12 штиль 0 н/о ясно -37.5 -39.9 78 -38 -38 опасность
обморожения
1042.3 965.7
21 12.12 штиль 0 н/о ясно -39.0 -42.1 72 -39 -39 опасность
обморожения
1043.6 966.7
00 13.12 штиль 0 н/о ясно -40.2 -42.1 82 -40 -40 опасность
обморожения
1044.0 966.9 -40.3 21
03 13.12 штиль 0 50 км ясно -36.9 -39.1 80 0.0
06 13.12 50 км 10/0
[Ci sp]
-31.2 -34.2 75 1037.2 963.1
09 13.12 штиль 0 н/о 10 баллов -32.8 -35.7 75 -33 -33 опасность
обморожения
1037.2 962.7
12 13.12 штиль 0 н/о 10/0
[Ci sp]
-34.1 -37.1 74 -34 -34 опасность
обморожения
1036.4 961.5 -30.7
15 13.12 штиль 0 н/о ясно -35.2 -37.4 80 -35 -35 опасность
обморожения
1035.4 960.3
18 13.12 штиль 0 н/о ясно -35.9 -38.0 81 -36 -36 опасность
обморожения
1039.6 959.2
21 13.12 штиль 0 н/о ясно -36.3 -38.4 81 -36 -36 опасность
обморожения
1033.8 958.4
00 14.12 штиль 0 50 км ясно -37.2 -39.5 79 -37 -37 опасность
обморожения
1033.7 958.1 -37.3 21
03 14.12 штиль 0 50 км 10/0 1000 м
[Ci sp]
-34.5 -36.6 81 -35 -34 опасность
обморожения
1031.8 957.1
06 14.12 штиль 0 50 км 10 баллов -29.4 -31.7 80 -29 -29 1028.9 956.0
09 14.12 штиль 0 н/о 10/0
[Ac lent Ci sp]
-30.2 -32.5 80 -30 -30 1027.8 954.7
12 14.12 штиль 0 н/о 10 баллов -29.9 -32.4 79 -30 -30 1027.7 954.7 -29.3
15 14.12 штиль 0 н/о 10/0
[As trans]
-30.1 -32.5 79 -30 -30 1025.9 952.7
18 14.12 штиль 0 н/о 10/0
[As trans]
-30.7 -32.3 86 -31 -31 опасность
обморожения
1024.6 951.5
21 14.12 штиль 0 н/о 10 баллов -31.0 -32.8 84 -31 -31 опасность
обморожения
1025.1 952.0
00 15.12 штиль 0 н/о 10/0
[As op]
-31.4 -33.0 86 -31 -31 опасность
обморожения
1021.7 948.6 -31.5 21
03 15.12 штиль 0 4000 м слабый снег 10/0
[As op]
-28.4 -30.2 84 -28 -28 1019.8 947.7
06 15.12 штиль 0 50 км 10 баллов -25.7 -27.3 86 -26 -26 1019.2 948.0
09 15.12 штиль 0 н/о 10/0
[Ci sp]
-26.5 -28.3 85 -27 -27 1018.0 946.5
12 15.12 штиль 0 н/о 10 баллов -28.9 -30.7 84 -29 -29 1020.2 948.0 -25.6 0.0
00 16.12 штиль 0 н/о 10 баллов -35.1 -36.7 85 -35 -35 опасность
обморожения
1020.7 946.7 -35.2
03 16.12 штиль 0 50 км 10 баллов -31.2 -33.0 84 -31 -31 опасность
обморожения
1018.0 945.3
06 16.12 штиль 0 50 км 10 баллов -27.5 -30.6 75 -28 -28 1015.5 944.0
12 16.12 штиль 0 н/о 10 баллов -30.1 -32.5 79 -30 -30 1014.8 942.7 -26.9
03 17.12 штиль 0 10 км слабый снег 10 баллов -24.3 -24.9 95 -24 -24 1017.4 946.7

 

Местоположение метеостанции Средняя Олекма (Забайкальский край, Россия): широта 55.43 долгота 120.50 высота над уровнем моря 528 м.

В архиве по умолчанию представлена погода в Средней Олекме за последнюю неделю. Архивные данные за месяц целиком и за предыдущие месяцы, начиная с января 2011 года, Вы можете получить, выбрав интересующий диапазон дат из раскрывающегося списка и нажав кнопку "Ввод!".


*Определитесь, кто Вы:
робот инопланетянин человек

Внимание! Время в таблицах - всемирное. Для получения местного времени необходимо прибавить поправку, которая в Средней Олекме равна 9 ч.

Смотрите также архив погоды в соседних городах и на ближайших метеорологических станциях:

Погода в Тупике (Забайкальский край, Россия) (118 км)
Погода в Усть-Нюкже (Амурская область, Россия) (142 км)
Погода в Лопче (Амурская область, Россия) (143 км)
Погода в Амазаре (Забайкальский край, Россия) (175 км)
Погода в Ерофей Павловиче (Амурская область, Россия) (186 км)
Погода в Могоче (Забайкальский край, Россия) (194 км)
Погода в Удокане (Забайкальский край, Россия) (200 км)
Погода в Чаре (Забайкальский край, Россия) (217 км)
Погода в Большой Лепринде (Забайкальский край, Россия) (226 км)
Погода в Ксеньевской (Забайкальский край, Россия) (239 км)

Пояснения к столбцам:

Ветер - указаны скорость ветра в м/с - средняя за 10 мин, порывы в срок и между сроками (в фигурных скобках) и направление, откуда дует ветер: С - северный, СВ - северо-восточный, В - восточный, ЮВ - юго-восточный, Ю - южный, ЮЗ - юго-западный, З - западный, СЗ - северо-западный.
Видимость - горизонтальная дальность видимости в метрах или километрах. При видимости от 1 до 10 км при отсутствии осадков обычно наблюдается дымка, при ухудшении видимости до 1 км и менее - туман. В сухую погоду видимость может ухудшаться дымом, пылью или мглою.
Явления - указаны атмосферные явления, наблюдавшиеся в срок или в последний час перед сроком; фигурными скобками обозначены явления, наблюдавшиеся между сроками (за 1-3 часа до срока); квадратными скобками обозначены град или гололедные отложения с указанием их диаметра в мм.
Облачность - указаны через наклонную черту общая и нижняя облачность в баллах и высота нижней границы облаков в метрах; квадратными скобками обозначены формы облаков: Ci - перистые, Cs - перисто-слоистые, Cc - перисто-кучевые, Ac - высококучевые, As - высокослоистые, Sc - слоисто-кучевые, Ns - слоисто-дождевые, Cu - кучевые, Cb - кучево-дождевые. Подробнее классификацию облаков см. в Атласе облаков (PDF).
T - Температура воздуха - температура, измеренная на высоте 2 м над землей.
Td - Температура точки росы - температура, при понижении до которой содержащийся в воздухе водяной пар достигнет насыщения.
f - Относительная влажность воздуха - влажноcть воздуха, измеренная на высоте 2 м над землей.
Te - Эффективная температура - температура, которую ощущает одетый по сезону человек в тени. Характеристика душности погоды. При расчете учитывается влияние влажности воздуха и скорости ветра на теплоощущения человека.
Tes - Эффективная температура на солнце - температура, которую ощущает человек, с поправкой на солнечный нагрев. Характеристика знойности погоды. Зависит от высоты солнца над горизонтом, облачности и скорости ветра. Ночью, в пасмурную погоду, а также при ветре 12 м/с и более поправка равна нулю.
P - Атмосферное давление - приведенное к уровню моря атмосферное давление.
Po - Атмосферное давление - измеренное на уровне метеостанции атмосферное давление.
Tmin - Минимальная температура - минимум температуры воздуха на высоте 2 м над землей.
Tmax - Максимальная температура - максимум температуры воздуха на высоте 2 м над землей.
R - Количество осадков - Количество выпавших осадков за период времени, мм. При наведении курсора мыши на число - период времени, за который выпало указанное количество осадков.
R24 - Количество осадков - Количество выпавших осадков за 24 часа, мм.
S - Снежный покров - Высота снежного покрова, см. При наведении курсора мыши на число - состояние снежного покрова и степень покрытия местности в баллах.